Wind_Speed
7 7 7 7 7 8 9 10 10 10 10 10 10 10 9 9 8 8 8 7 7 7 6 5 4 4 4 5 6 8 9 9 10 10 10 9 9 9 9 9 9 10 10 11 11 11 11 12 13 14 15 16 16 17 18 19 19 19 20 20 21 21 21 21 21 21 21 20 20
7 7 7 7 7 8 8 9 10 10 11 11 11 10 10 10 10 9 9 9 8 8 7 6 5 4 4 4 6 7 8 9 10 10 10 10 9 9 9 9 10 10 11 11 11 11 12 12 13 14 15 16 16 17 18 19 19 19 19 19 20 20 20 20 20 20 20 20 19
6 7 7 7 7 7 7 8 9 9 10 11 11 11 11 11 11 11 10 10 10 9 9 8 7 5 4 4 5 6 7 8 9 9 9 10 10 10 10 10 10 11 11 11 11 11 11 12 13 14 15 16 16 17 18 18 18 18 18 18 19 19 19 19 19 19 19 18 18
6 6 7 7 7 7 7 7 7 7 8 10 10 11 11 11 11 11 11 11 11 11 10 9 8 7 6 5 4 5 6 7 7 8 8 9 9 10 11 11 11 11 11 11 11 11 11 12 13 14 15 16 17 17 18 18 17 17 17 18 18 19 18 18 18 18 18 17 17
5 6 6 6 7 7 7 8 8 7 8 8 9 10 11 11 11 12 12 12 12 12 11 11 10 8 7 6 5 5 5 6 6 7 7 8 8 9 10 11 12 12 12 12 11 11 11 12 13 14 15 16 17 17 18 18 17 17 17 18 19 18 18 18 18 18 18 17 17
5 6 6 6 6 7 7 7 8 8 8 8 8 9 10 10 10 11 11 12 12 12 12 12 11 10 9 8 7 7 6 6 6 6 6 7 7 8 9 10 11 12 13 13 12 12 12 12 13 15 16 17 17 18 18 18 18 18 18 19 20 19 19 18 18 18 18 17 17
6 6 6 6 7 7 7 7 7 8 8 8 8 8 8 8 9 10 10 11 11 12 12 12 12 12 11 10 10 9 9 8 8 7 7 7 7 7 8 9 11 12 13 14 14 14 14 14 14 15 16 17 18 18 18 18 18 18 19 19 20 20 20 19 19 19 18 18 17
6 6 6 6 7 7 7 7 7 7 8 8 8 8 8 8 8 9 9 10 10 11 12 13 13 12 12 12 12 11 11 10 10 9 9 8 8 8 8 9 10 12 13 14 15 15 15 15 15 16 16 17 17 18 18 18 18 18 19 19 20 21 21 20 20 20 19 19 18
7 7 6 6 7 7 7 7 7 8 8 8 8 8 8 8 9 9 9 9 9 10 11 12 12 13 13 13 13 13 12 12 12 11 11 10 10 10 10 10 11 12 13 14 15 15 15 15 16 16 17 17 17 17 17 17 18 19 19 20 21 22 22 22 21 21 20 20 19
7 7 7 7 7 7 7 7 7 8 8 8 9 9 9 9 9 9 9 9 9 9 9 10 11 12 12 13 13 13 14 14 13 13 13 13 12 12 12 12 12 12 13 14 15 15 16 16 17 17 17 17 17 17 17 17 18 19 20 21 22 22 22 22 22 22 21 21 20
8 8 7 7 7 7 7 7 7 8 8 8 8 8 8 9 9 9 9 9 9 9 9 9 10 10 11 12 13 13 14 14 14 14 14 15 14 14 14 13 13 14 14 15 15 16 17 17 18 18 18 18 18 18 17 17 18 19 20 21 22 23 23 23 23 23 23 22 22
10 9 8 7 7 7 7 8 8 7 8 8 8 8 8 8 8 8 8 9 9 10 10 10 10 10 11 11 11 12 12 13 14 14 15 15 16 16 16 15 15 15 16 16 17 17 18 19 19 20 20 20 19 19 19 18 19 19 20 22 22 23 23 24 24 24 24 24 23
12 11 10 9 8 8 8 8 7 7 7 8 8 8 8 8 8 8 8 9 9 9 9 9 10 10 11 11 11 11 11 12 13 14 15 15 16 16 17 17 17 17 17 18 18 19 19 20 21 21 21 21 21 20 20 19 20 20 21 22 23 23 24 24 25 25 25 25 24
13 12 11 10 10 9 8 8 7 7 7 8 7 7 7 8 8 8 8 8 9 9 9 9 9 10 10 11 11 11 11 12 13 14 14 15 15 16 17 17 17 18 18 19 19 20 20 21 22 22 22 22 22 22 21 21 20 21 22 23 23 24 24 24 25 25 25 24 24
15 14 13 12 11 10 9 9 8 7 7 8 7 7 7 7 8 8 8 8 8 8 9 9 9 9 10 10 11 12 12 12 13 14 15 15 16 16 17 17 17 18 18 19 20 20 21 21 22 23 23 23 23 23 22 22 22 22 22 23 24 24 24 24 25 25 25 25 25
17 16 15 14 12 11 10 10 9 8 8 8 7 7 7 7 7 7 7 8 8 8 8 8 9 9 9 10 10 11 12 12 13 14 15 15 16 16 17 17 18 18 19 19 20 21 21 21 22 22 23 23 24 24 23 23 23 23 23 24 24 24 24 24 25 25 26 26 25
18 17 17 15 14 12 11 10 10 9 9 9 8 8 7 7 7 7 8 7 7 8 8 8 8 9 9 9 10 10 11 12 13 14 14 15 15 15 16 17 18 19 19 20 20 21 21 21 22 22 23 23 24 24 24 24 24 24 24 24 25 25 25 25 25 26 26 26 26
19 18 18 17 15 14 12 11 11 10 10 10 9 8 8 8 8 8 8 8 8 8 8 9 9 9 9 10 10 10 11 11 13 13 14 15 15 15 16 16 17 18 19 20 20 21 22 22 22 22 22 23 23 24 24 25 25 25 25 25 25 25 25 26 26 26 26 27 27
20 19 19 18 17 15 14 13 12 11 11 10 9 9 9 8 8 8 8 8 8 8 9 9 9 9 10 10 10 10 11 12 12 13 14 14 15 15 16 16 16 17 18 19 20 21 21 22 22 22 22 22 23 23 24 24 25 26 26 26 26 26 26 26 26 26 27 27 28
22 22 21 20 18 17 16 15 14 13 12 11 10 10 9 9 9 9 9 9 9 9 9 9 9 10 10 11 11 11 12 12 13 13 14 14 15 15 16 16 16 16 17 18 19 20 21 21 21 22 22 22 22 23 23 23 24 25 26 26 26 26 26 26 26 26 27 27 27
25 24 23 22 21 20 19 17 16 14 13 12 12 11 11 10 10 10 10 10 10 10 9 10 10 10 11 11 11 12 12 12 13 13 14 14 14 15 15 15 16 16 17 17 18 19 20 20 21 21 21 21 22 22 22 23 23 24 25 25 25 26 26 26 26 26 26 27 27
26 26 26 25 24 23 22 20 18 16 15 14 13 13 12 12 11 10 10 10 10 10 10 10 10 11 11 11 11 12 12 13 13 14 14 14 14 14 15 15 15 16 17 18 18 18 19 19 20 20 20 20 21 21 22 22 22 23 23 24 25 25 25 26 26 26 27 27 27
26 27 27 26 26 25 24 23 21 19 17 16 15 14 14 13 13 12 11 11 11 11 11 11 11 11 11 12 12 12 13 13 14 15 15 15 15 15 15 15 15 16 17 18 18 18 18 18 19 19 19 20 20 20 21 21 21 22 22 23 24 24 25 25 26 27 27 27 27
26 27 27 26 27 27 26 25 23 22 20 19 17 16 15 15 14 13 13 12 12 11 11 11 11 12 12 12 13 13 13 14 15 15 16 16 16 16 16 16 16 17 18 18 18 19 19 18 18 18 19 19 19 19 20 20 20 21 21 22 23 23 24 25 26 27 27 28 28
26 26 26 26 27 27 26 26 25 23 22 21 20 18 17 16 15 15 14 14 13 13 12 12 12 12 12 13 13 13 14 14 15 15 16 16 16 16 17 17 18 18 18 18 19 20 20 20 19 18 18 18 18 19 19 20 20 21 21 21 22 22 23 24 26 27 28 29 29
26 26 26 26 26 26 26 25 25 24 23 23 22 21 20 19 17 17 16 15 15 14 14 14 13 13 13 13 13 13 13 14 14 15 15 16 16 17 17 18 18 18 19 20 21 21 22 22 21 20 18 17 17 18 18 19 20 21 21 21 21 22 22 23 25 26 28 29 29
27 26 26 26 26 26 25 25 25 25 24 24 23 22 22 21 20 19 17 16 16 15 15 15 14 14 14 14 14 14 14 14 14 15 15 16 16 17 17 18 19 20 21 22 22 22 22 22 22 22 20 18 18 17 17 18 19 19 20 21 21 22 22 23 24 25 27 28 29
26 26 27 27 26 25 25 25 25 25 25 24 24 23 23 22 22 20 19 18 17 17 16 16 15 14 14 13 14 14 15 15 14 15 15 16 16 17 17 18 19 20 21 22 22 22 22 23 23 23 22 21 19 18 18 18 18 19 19 20 21 22 22 23 23 24 25 26 28
24 25 25 26 26 25 25 25 25 25 25 25 24 23 23 22 22 20 19 19 18 17 16 15 15 14 14 14 15 15 16 15 15 15 15 16 16 17 18 18 19 20 21 21 22 22 22 22 23 23 23 22 21 19 18 18 18 18 19 19 20 21 22 22 22 22 23 24 26
20 21 23 24 24 25 25 25 25 25 25 24 24 24 23 22 21 20 19 18 17 16 15 15 15 15 15 16 16 16 16 16 16 15 16 16 16 17 18 18 19 20 21 21 21 21 22 22 22 23 23 23 23 21 20 19 18 18 18 19 20 21 22 22 22 22 22 22 23
17 18 20 21 22 23 24 24 25 25 25 24 24 24 23 22 21 19 18 17 17 16 16 15 15 16 16 17 17 17 17 17 17 17 17 17 18 18 18 19 19 20 21 21 21 21 21 22 22 22 22 23 23 23 22 21 20 19 19 19 20 21 21 22 22 22 22 22 22
16 17 18 18 19 20 22 23 24 24 25 25 24 24 23 22 21 20 19 17 17 17 16 16 16 16 16 17 17 17 18 18 18 19 19 19 19 19 19 20 20 21 21 21 22 22 22 21 21 22 22 23 23 24 24 23 22 21 20 20 21 21 22 22 22 23 23 23 24
16 17 17 18 19 19 20 21 22 23 24 24 24 24 23 23 22 21 20 18 17 16 15 15 15 16 16 16 16 17 17 18 18 19 19 19 19 19 20 20 20 21 21 21 21 22 21 21 21 21 22 22 23 23 24 24 23 23 22 21 21 21 22 23 23 23 24 25 25
17 17 18 18 19 20 20 21 21 22 23 23 24 24 23 23 23 22 21 19 17 17 16 16 16 16 16 16 17 17 17 18 18 19 19 19 19 20 20 21 21 21 21 22 22 22 21 21 21 21 21 21 22 23 24 24 24 24 23 23 22 22 22 23 23 24 24 25 26
17 18 18 19 19 20 20 20 21 21 22 22 23 23 23 23 22 22 21 20 19 19 18 17 16 16 17 17 17 18 18 19 20 20 20 20 19 20 21 22 22 23 23 22 22 22 22 21 21 21 20 21 21 22 23 24 25 25 25 24 23 23 23 24 24 24 24 25 25
17 17 18 18 19 19 19 19 20 20 21 21 22 23 23 23 22 22 21 21 21 20 19 19 18 17 17 17 17 17 18 19 20 20 21 20 20 20 21 22 22 23 23 23 23 22 22 21 21 20 20 20 21 21 22 23 24 25 25 25 25 24 24 24 24 24 24 24 25
17 17 17 18 18 18 19 19 19 19 20 20 21 22 22 22 22 22 21 20 20 20 20 19 19 19 18 18 18 18 18 18 19 20 21 21 21 21 21 22 22 22 22 22 22 22 22 21 20 20 19 20 21 21 22 22 23 24 25 25 26 25 24 23 23 24 24 24 25
18 18 18 18 18 18 18 18 18 19 19 20 20 21 21 21 21 21 20 20 19 19 20 20 20 20 20 19 20 20 20 20 20 21 21 22 22 22 22 22 22 22 22 21 22 22 22 21 21 20 20 20 21 21 21 21 22 23 24 25 25 25 25 24 23 23 24 25 26
20 19 19 19 19 19 19 19 19 19 19 20 20 20 20 20 20 20 20 19 19 19 20 20 21 21 21 21 21 22 22 22 21 21 22 22 23 23 23 23 23 22 22 21 21 21 22 21 21 21 21 21 21 21 21 21 22 22 23 24 24 24 24 24 24 23 24 25 26
21 21 20 20 20 20 20 20 20 20 19 19 20 20 20 20 20 20 20 19 19 19 19 20 21 22 21 21 22 23 24 24 23 23 22 23 23 24 24 24 25 24 23 22 21 21 22 21 21 21 21 21 22 21 21 21 22 22 23 23 23 23 23 24 24 24 24 24 26
23 22 22 22 21 21 21 22 22 21 21 20 20 20 20 20 20 20 20 19 19 19 20 20 21 22 22 22 23 24 25 26 26 25 24 23 24 24 25 25 26 25 24 23 22 22 22 22 21 21 21 21 22 22 22 22 22 22 23 23 23 23 22 22 23 23 24 24 25
Wind_Direction
277 275 274 275 276 278 282 285 287 289 290 291 291 292 293 292 290 289 287 283 280 275 270 263 257 248 237 227 223 223 223 222 220 218 217 216 217 219 223 225 225 221 217 213 212 212 213 215 216 216 216 216 216 215 216 215 215 215 216 218 219 220 221 223 225 226 227 227 228
281 279 277 276 275 276 277 279 282 284 286 288 288 289 290 290 290 289 289 288 288 286 283 278 273 263 246 229 221 219 220 221 221 221 223 225 228 229 232 234 235 232 226 221 218 217 219 221 222 222 222 222 221 221 220 219 217 216 217 219 220 221 222 223 224 226 227 227 228
285 282 280 277 275 275 275 275 277 278 280 283 286 286 287 286 285 285 286 287 289 289 288 285 282 276 263 241 225 220 221 223 224 226 229 233 236 239 240 241 240 238 234 230 226 224 224 226 229 229 228 228 227 226 226 224 222 220 220 222 223 224 224 224 225 226 227 228 229
288 285 282 279 278 277 276 276 276 276 276 278 281 283 283 283 283 282 283 285 286 286 286 286 285 282 275 258 237 225 223 225 228 231 234 237 240 242 243 242 240 238 237 236 234 231 230 231 234 235 235 234 232 231 231 230 227 225 224 225 227 228 228 228 229 230 230 231 232
292 288 285 283 281 279 277 276 276 276 274 274 276 278 279 280 280 280 280 281 281 283 285 286 285 282 277 268 257 244 234 229 229 231 234 238 240 241 240 239 237 235 235 235 236 236 236 236 237 239 240 240 237 236 235 233 231 229 230 232 233 234 234 234 234 235 235 236 236
296 292 288 285 283 281 279 278 278 276 275 273 271 272 273 274 275 276 276 276 279 283 285 286 285 281 276 271 266 260 253 245 239 236 237 239 242 241 238 236 235 233 233 232 233 234 235 236 238 240 242 242 241 239 238 236 234 233 234 237 238 238 238 238 239 239 239 239 239
302 296 292 288 285 283 281 281 281 280 278 275 273 271 270 270 271 272 274 276 278 279 281 283 282 281 279 276 272 269 266 261 257 253 250 249 250 249 244 240 236 234 233 232 231 231 232 233 235 237 239 240 240 240 238 237 235 235 236 238 239 239 238 239 239 240 240 240 239
316 308 302 297 292 287 283 282 281 281 279 277 275 275 274 273 272 271 272 272 272 274 276 278 279 280 280 280 278 277 275 271 268 265 263 261 260 258 254 249 244 240 237 235 234 233 233 234 235 237 238 239 239 239 238 236 235 234 235 237 239 239 238 238 239 239 239 238 238
325 321 316 310 305 299 292 287 283 281 278 277 276 276 276 276 275 274 272 270 270 271 272 273 275 276 278 279 279 279 278 276 274 271 269 267 264 262 260 257 253 248 245 241 239 238 237 238 239 240 241 242 242 240 239 236 235 234 234 235 238 239 238 237 237 237 237 236 236
332 328 324 320 315 309 304 299 292 285 280 278 277 277 276 275 274 274 274 273 271 269 268 268 269 270 272 273 275 276 276 276 275 273 271 268 265 262 260 258 255 253 250 248 246 244 243 242 243 244 245 246 245 244 241 238 235 234 234 234 236 237 237 236 235 235 234 234 233
346 339 333 325 320 316 312 308 301 295 288 283 281 280 277 275 272 271 270 271 270 268 267 267 266 265 266 267 268 270 271 272 271 271 269 268 265 263 259 256 254 252 251 250 249 247 246 246 245 246 247 247 247 246 243 240 236 234 234 235 235 236 235 234 233 232 231 231 231
355 350 344 337 331 326 320 315 309 302 296 291 288 285 281 277 273 270 268 267 267 267 267 266 264 262 261 262 263 263 265 266 266 266 266 266 266 264 261 258 255 252 250 249 247 246 246 246 246 246 246 246 246 245 243 240 237 235 235 235 235 235 234 233 232 230 229 229 228
1 359 355 350 345 339 332 325 317 308 301 297 295 291 287 284 280 275 271 268 266 266 266 265 264 262 261 260 259 258 259 261 262 263 263 263 264 264 263 260 257 254 252 250 247 246 245 245 246 245 245 245 245 244 243 240 238 236 236 236 236 235 234 233 231 229 228 227 227
6 4 1 358 356 351 344 337 329 319 312 308 305 301 296 292 289 284 278 274 270 268 266 265 263 262 261 261 260 258 257 257 259 260 260 260 260 261 261 260 259 257 255 253 250 248 246 246 246 246 246 245 245 245 244 242 239 238 237 237 237 236 235 233 232 230 228 227 226
7 6 5 3 2 359 353 346 339 331 325 321 316 311 305 300 297 293 288 283 279 276 272 267 264 261 260 260 260 260 259 257 257 257 257 257 256 256 256 257 257 256 255 254 254 252 249 248 247 247 247 247 247 246 245 243 241 240 239 238 238 237 236 234 233 231 229 227 226
3 4 3 3 1 359 355 349 344 338 333 329 324 317 311 308 307 304 298 292 289 285 279 273 269 267 264 261 259 258 258 257 256 256 255 254 253 253 253 253 254 254 253 253 254 253 252 250 249 248 248 248 248 247 246 245 243 241 240 239 239 238 237 235 234 232 230 228 226
358 358 359 358 356 354 352 348 345 341 337 334 330 325 320 317 314 311 306 301 296 289 284 279 277 274 270 266 262 258 256 255 254 254 253 253 252 251 250 250 250 251 252 252 252 252 253 252 251 249 248 248 247 247 247 246 244 243 241 239 239 239 238 237 236 234 232 230 227
353 353 353 353 351 349 347 345 343 340 338 336 333 331 328 325 319 315 313 310 303 295 289 286 282 278 273 269 266 261 257 255 253 252 252 252 252 251 250 249 249 250 250 250 250 250 252 253 252 250 248 247 246 246 246 246 245 244 242 240 239 239 239 238 237 235 233 231 229
349 349 349 348 347 345 344 343 340 339 337 335 333 332 331 329 326 322 319 316 311 303 295 289 285 280 276 272 269 266 262 258 255 253 251 250 251 251 251 250 250 249 248 248 249 249 250 251 251 250 248 246 245 244 244 244 245 245 243 241 240 239 238 238 237 236 235 233 231
348 347 346 345 344 343 342 341 339 337 335 333 332 332 331 330 329 326 322 319 316 310 301 293 287 283 280 278 274 270 266 264 260 258 255 252 250 249 249 249 250 249 248 248 248 249 249 249 249 248 246 245 243 242 242 242 243 244 243 242 240 238 238 237 237 236 236 234 232
349 347 345 344 343 343 342 341 339 337 335 333 332 332 331 330 329 327 324 322 320 314 307 300 294 289 285 282 277 274 272 270 266 263 260 257 254 251 250 249 249 248 248 247 247 247 247 246 246 245 245 243 242 241 240 240 240 241 242 241 239 238 237 237 236 236 235 234 232
349 348 346 345 344 343 343 342 341 340 338 335 333 332 332 331 330 328 326 324 320 316 311 306 301 296 292 288 283 279 276 274 270 267 264 262 258 255 253 251 249 248 247 246 245 245 245 244 243 243 242 241 240 240 239 238 238 239 240 240 239 238 237 236 235 235 234 234 232
350 349 348 346 345 344 345 344 344 343 342 339 337 334 332 331 328 326 324 321 318 316 313 309 306 302 299 296 291 285 281 277 274 271 269 266 263 260 257 254 251 249 247 246 244 243 242 241 241 240 240 239 239 239 238 237 236 237 238 238 238 238 237 236 235 235 234 234 233
351 350 349 346 345 345 345 345 345 345 344 343 340 337 334 331 326 323 321 319 317 315 312 309 307 304 301 298 295 291 285 280 277 274 272 270 266 263 260 257 254 251 249 247 244 242 239 238 238 238 238 238 238 238 238 237 235 235 235 236 236 236 236 236 235 235 234 233 233
350 350 349 347 346 345 345 345 344 343 342 342 340 338 336 332 328 324 321 318 315 313 311 308 305 303 300 297 294 292 289 284 281 278 275 272 270 266 262 259 256 254 252 249 247 243 241 238 237 237 236 237 237 238 238 237 236 234 234 234 234 234 235 235 235 235 234 234 232
348 347 346 345 345 344 344 343 341 340 339 339 338 338 336 334 330 326 322 318 315 311 309 307 304 302 298 295 292 290 288 285 283 281 278 275 272 269 264 260 257 255 253 251 250 248 245 243 240 238 237 237 237 237 237 237 236 235 233 232 232 231 232 232 233 234 234 234 233
345 344 343 342 342 342 341 340 339 338 337 336 335 335 334 333 331 328 324 319 315 311 308 306 304 301 297 294 291 288 286 283 282 281 280 277 274 271 266 263 260 257 255 254 253 251 249 247 244 241 239 238 238 237 236 236 236 235 233 232 231 230 230 230 231 232 233 233 233
341 339 338 338 338 338 338 338 338 336 335 333 332 331 331 331 331 329 325 321 318 314 311 308 303 298 295 291 289 287 286 283 281 279 278 277 275 272 268 265 263 261 259 258 256 254 252 250 247 243 240 238 239 239 238 238 237 235 233 232 231 231 230 230 230 230 231 232 232
335 334 334 334 334 335 336 336 335 334 333 331 329 328 328 328 328 327 325 322 320 316 312 308 301 295 290 286 285 285 284 281 278 276 274 274 273 272 269 267 265 264 263 261 258 256 253 251 249 245 242 239 239 240 240 239 238 236 234 233 232 231 230 229 229 229 229 230 230
329 328 329 330 331 332 333 333 333 331 330 328 327 326 326 325 325 324 322 320 317 313 309 304 298 291 286 283 283 282 280 277 275 272 270 269 269 269 269 268 267 267 266 264 261 258 254 251 249 246 243 240 239 239 241 241 239 237 235 235 233 232 231 230 228 227 226 227 227
321 322 324 326 328 329 330 330 329 329 327 326 325 324 323 322 321 320 319 317 315 312 308 303 296 291 287 284 282 279 277 275 272 269 267 266 266 267 268 268 267 268 267 266 263 259 256 252 249 246 244 241 239 239 240 241 240 238 237 236 235 233 232 230 229 227 226 224 224
318 319 321 323 325 326 327 327 327 326 325 324 322 321 320 319 318 318 317 315 313 311 308 303 298 293 289 286 283 280 277 274 272 269 267 266 266 267 267 267 266 266 267 266 263 260 256 252 249 246 243 241 240 240 241 241 241 240 240 239 237 235 233 231 230 228 227 225 224
318 320 321 323 324 324 325 325 324 323 322 321 319 318 318 317 317 317 316 314 312 309 306 302 298 295 291 288 284 281 278 274 272 270 268 267 265 265 265 264 264 264 264 264 262 259 256 252 248 245 243 241 240 240 241 241 242 242 241 240 239 237 235 233 231 230 228 226 225
319 321 322 322 323 323 323 322 322 321 319 317 316 315 315 315 316 315 315 313 311 307 304 301 298 295 292 289 286 283 280 277 274 272 269 267 265 264 262 261 261 261 261 261 260 257 254 251 248 245 243 241 240 240 240 241 241 242 241 240 239 238 236 235 233 231 230 228 227
319 319 319 320 319 319 319 318 318 316 315 313 312 312 313 313 313 313 312 312 310 307 304 301 298 296 293 290 287 285 282 279 277 274 271 268 265 262 261 259 259 260 260 259 258 255 252 249 246 244 242 240 239 239 239 240 241 241 241 241 240 239 237 236 235 233 231 229 228
315 315 315 314 313 313 312 312 311 310 309 308 308 309 309 310 310 310 310 310 309 307 304 303 301 298 295 292 290 286 283 280 278 276 273 269 265 261 259 259 259 259 259 257 256 253 250 247 244 242 240 238 237 237 238 239 240 241 242 241 240 238 237 236 235 234 232 230 228
311 310 309 308 307 306 305 305 305 304 303 304 304 305 306 306 306 306 306 307 306 305 304 303 301 299 296 295 292 288 285 281 278 275 272 269 265 261 260 260 259 258 257 256 254 251 249 246 243 240 237 235 234 235 236 238 239 240 241 241 241 239 237 236 236 235 233 231 228
307 306 304 303 301 300 300 299 299 298 299 300 300 301 302 303 302 302 303 303 302 302 301 301 299 298 296 295 293 290 287 283 279 275 272 269 265 262 260 260 260 259 258 256 253 250 248 245 242 238 236 233 233 234 235 236 237 239 240 241 241 240 238 236 236 235 234 232 230
304 303 302 300 298 298 297 297 296 296 296 297 298 299 299 299 299 299 299 299 298 298 298 297 297 296 296 296 294 292 289 285 281 277 274 271 268 265 263 261 261 261 259 256 254 251 248 245 241 238 235 233 232 233 234 236 237 238 238 240 241 240 238 236 235 235 235 234 232
302 301 300 299 298 297 297 296 296 295 295 296 296 296 297 297 296 296 296 296 295 295 295 295 295 295 296 296 294 292 290 287 284 280 277 274 272 269 267 264 263 262 261 257 254 251 249 245 240 237 235 233 232 233 233 235 237 238 238 237 239 239 238 237 235 234 234 235 233
299 299 299 298 297 297 297 296 296 296 295 295 294 294 294 294 294 294 294 294 294 294 294 294 294 294 295 294 293 291 290 288 286 283 280 278 276 273 270 267 266 264 262 259 254 251 248 245 240 237 234 232 232 232 232 234 235 236 236 236 236 237 237 236 234 234 233 234 233
Height
749 749 749 750 750 749 749 749 749 749 749 749 749 748 748 748 748 748 748 748 748 748 748 748 748 748 748 748 748 749 749 750 750 751 752 752 753 753 754 754 755 755 755 755 756 756 756 757 757 758 759 760 761 762 763 763 764 765 766 767 767 767 768 768 768 767 767 767 768
748 749 749 749 749 749 749 749 748 748 748 748 748 748 748 748 748 748 748 748 748 748 748 748 748 748 748 748 748 749 749 750 750 751 751 752 752 753 753 753 754 754 755 755 755 755 755 756 756 757 758 758 759 760 761 762 763 764 764 765 765 765 766 766 766 766 766 766 766
748 748 748 748 749 749 749 748 748 748 748 748 748 748 748 748 748 748 748 748 748 748 748 748 748 748 748 748 749 749 749 750 750 750 751 751 752 752 753 753 753 754 754 754 754 754 754 755 755 756 756 757 758 758 759 760 761 762 763 763 763 764 764 764 764 765 765 765 765
747 747 748 748 748 748 748 748 748 748 748 748 748 748 748 748 748 748 748 748 748 748 748 748 748 748 748 749 749 749 749 749 750 750 750 750 751 751 752 752 753 753 753 753 754 753 753 754 754 755 756 756 757 757 758 758 759 760 761 761 762 762 763 763 763 763 763 763 763
747 747 747 747 747 747 748 748 748 748 748 748 748 748 748 748 748 747 747 747 747 747 747 748 748 748 748 748 749 749 749 749 749 749 749 749 750 750 751 751 752 752 752 753 753 753 753 753 753 754 755 755 755 756 756 757 758 758 759 759 760 760 761 761 761 761 761 762 762
746 746 746 746 746 746 747 747 747 747 747 747 747 747 747 747 747 747 747 747 747 747 747 747 747 748 748 748 748 748 748 748 748 748 748 748 749 749 749 750 750 751 751 752 752 752 752 752 753 753 753 754 754 754 755 755 756 757 758 758 758 759 759 760 760 760 760 761 761
746 745 745 745 745 745 745 746 746 746 746 746 747 747 747 747 747 747 747 747 747 747 747 747 747 747 747 748 748 748 748 748 748 748 748 748 748 748 748 749 749 750 750 751 751 751 751 752 752 752 753 753 753 753 754 754 755 755 756 757 757 758 758 758 758 759 759 760 760
745 745 745 744 744 744 744 744 744 745 745 745 745 746 746 746 746 746 746 746 746 746 746 746 746 746 746 747 747 747 747 747 747 747 747 747 747 748 748 748 748 749 749 750 750 750 751 751 751 751 752 752 752 753 753 753 753 754 755 755 756 756 757 758 758 758 758 759 760
745 744 744 744 743 743 743 743 743 743 744 744 744 745 745 745 746 746 746 746 746 746 745 745 745 745 745 745 746 746 746 746 746 746 746 746 746 747 747 747 747 748 748 748 749 749 749 750 750 750 751 751 751 752 752 752 753 753 754 754 755 755 756 757 757 758 758 758 759
745 744 744 743 743 743 743 742 742 743 743 743 743 743 744 744 744 745 745 745 745 745 745 745 745 744 744 744 745 745 745 745 745 745 745 745 746 746 746 746 746 747 747 747 748 748 748 748 748 749 749 750 750 750 751 751 752 752 753 753 754 754 755 756 756 757 757 758 758
744 744 744 743 743 742 742 742 741 741 741 742 742 742 743 743 743 743 744 744 744 744 744 744 744 744 744 744 744 744 744 744 744 744 744 744 745 745 745 745 745 746 746 747 747 747 747 747 748 748 748 748 749 749 750 751 751 752 752 752 753 753 754 754 755 755 756 756 757
744 744 743 743 742 742 741 741 741 741 740 741 741 741 741 742 742 742 742 743 743 743 743 743 743 743 743 743 743 743 743 743 743 743 743 743 743 744 744 744 745 745 745 746 746 746 746 746 747 747 747 748 748 748 749 750 750 751 751 751 752 752 752 753 753 753 754 754 755
744 743 743 743 742 741 741 741 740 740 740 740 740 740 740 740 740 741 741 741 741 742 742 742 742 742 742 742 742 743 742 742 742 742 742 742 743 743 743 743 743 744 744 745 745 745 745 746 746 746 746 747 747 747 748 748 749 749 750 750 750 750 751 751 752 752 753 753 754
744 743 743 742 742 741 741 740 740 739 739 739 739 739 739 739 739 739 739 739 740 740 740 741 741 741 741 741 741 741 742 742 741 741 741 741 742 742 742 742 742 743 743 743 744 744 744 745 745 745 745 746 746 746 747 747 748 748 748 749 749 749 749 750 750 751 751 752 752
745 744 743 742 741 741 740 740 739 739 738 738 738 738 738 738 737 738 738 738 738 738 739 739 739 739 740 740 740 740 740 740 740 740 740 740 741 741 741 741 741 742 742 742 743 743 743 744 744 744 744 745 745 745 746 746 746 747 747 747 748 748 748 749 749 749 750 750 751
746 745 743 743 742 741 740 740 739 739 738 738 738 737 737 736 736 736 736 736 736 737 737 737 738 738 738 738 739 739 739 739 739 739 739 739 740 740 740 740 740 740 741 741 741 742 742 743 743 743 743 744 744 744 745 745 745 745 746 746 746 747 747 748 748 748 749 749 750
747 746 744 743 742 741 740 740 739 738 738 738 737 736 736 735 735 735 735 735 735 735 735 735 736 736 737 737 737 738 738 738 738 738 738 738 739 739 739 739 739 739 740 740 740 740 741 741 742 742 743 743 743 743 743 744 744 744 744 744 745 745 746 746 747 747 748 748 749
748 747 746 744 743 742 741 740 739 738 738 737 736 736 735 735 734 734 734 733 733 733 733 734 734 734 735 735 735 736 736 736 737 737 737 738 738 738 738 738 738 738 739 739 739 739 739 739 740 741 741 741 742 742 742 743 743 743 743 743 743 744 744 745 745 746 746 747 747
749 748 747 745 744 743 741 740 739 738 738 737 736 735 735 734 734 733 733 733 733 732 732 732 733 733 733 733 734 734 734 735 735 735 736 736 737 737 737 737 738 738 738 738 738 738 738 738 738 739 739 740 740 741 741 741 741 741 742 742 742 743 743 743 744 744 744 745 746
750 749 748 747 745 744 742 741 739 738 737 736 736 735 734 734 733 733 732 732 732 732 731 731 731 731 732 732 732 733 733 733 733 734 734 735 735 736 736 736 736 737 737 737 737 737 737 737 737 738 738 738 738 739 739 740 740 740 740 741 741 741 742 742 742 742 743 743 744
750 749 748 747 746 744 743 741 740 738 737 736 735 734 734 733 733 732 732 731 731 731 730 730 730 730 730 730 731 731 731 732 732 732 733 733 733 734 734 735 735 735 735 736 736 736 736 736 736 736 736 737 737 737 738 738 738 738 739 739 739 740 740 740 741 741 741 742 742
750 749 748 747 745 744 743 742 740 738 737 736 735 734 733 732 732 731 731 730 730 730 729 729 729 729 729 729 729 729 730 730 730 731 731 732 732 733 733 733 734 734 734 734 734 734 734 735 735 735 735 735 735 736 736 737 737 737 737 738 738 738 739 739 739 740 740 740 741
750 749 748 747 745 744 743 742 740 739 737 736 735 733 733 732 731 730 730 729 729 729 729 728 728 728 728 728 728 728 728 728 729 729 729 730 730 731 731 732 732 732 732 733 733 733 733 733 733 734 734 734 734 734 734 735 735 736 736 736 736 737 737 738 738 738 738 739 739
750 749 748 747 746 744 743 742 740 739 738 736 735 734 733 732 731 730 729 729 728 728 728 728 728 728 727 727 727 727 727 727 727 727 728 728 728 729 729 730 730 730 730 731 731 731 731 732 732 732 733 733 733 733 733 733 734 734 734 734 735 735 735 736 736 737 737 737 738
750 749 748 748 746 745 743 742 741 739 738 737 735 734 733 732 730 729 729 728 728 727 727 727 727 726 726 726 726 726 726 726 726 726 726 726 727 727 728 728 728 728 728 728 728 729 729 730 730 731 731 731 732 732 732 732 732 732 733 733 733 733 733 734 734 734 735 735 736
749 748 748 747 746 745 744 743 741 740 738 737 735 734 733 731 730 729 728 728 727 726 726 726 725 725 725 725 725 725 724 724 724 724 724 725 725 725 726 726 726 727 727 727 727 727 728 728 728 729 729 730 730 730 731 731 731 731 731 731 731 731 731 732 732 732 733 733 734
748 748 748 747 746 745 744 743 741 740 739 738 736 734 733 731 730 729 728 727 726 726 725 725 724 724 724 724 723 723 723 723 723 723 723 723 723 723 724 724 724 724 724 725 725 726 726 727 727 728 728 728 728 729 729 729 729 729 729 729 729 729 729 729 729 730 730 731 731
749 748 748 747 746 744 743 742 741 740 739 738 736 735 733 732 730 729 728 727 726 725 725 724 723 723 723 723 723 723 722 722 722 721 721 721 722 722 722 722 722 722 722 723 723 724 725 725 726 726 727 727 727 727 727 727 727 728 728 728 728 727 727 727 728 728 728 728 729
750 749 748 747 745 744 742 741 740 739 738 738 736 735 733 732 730 729 728 727 726 725 724 724 723 723 722 722 722 721 721 721 721 720 720 719 719 719 720 720 720 720 720 721 722 722 723 723 724 724 725 725 726 726 726 726 725 725 725 725 725 725 725 725 726 726 726 726 727
752 750 749 747 745 743 742 741 740 739 738 737 736 735 733 732 730 729 728 727 726 725 724 724 723 722 721 721 720 720 720 720 719 719 718 718 718 717 718 718 718 718 718 719 719 720 721 721 722 723 723 724 724 724 724 724 724 724 723 723 723 723 723 723 723 724 724 724 725
753 751 749 747 745 743 742 741 740 739 738 737 736 734 733 732 730 729 728 727 726 725 724 723 722 721 720 720 719 718 718 718 718 718 717 717 716 716 715 716 716 716 716 717 718 718 718 719 720 720 721 722 723 723 723 723 722 722 722 721 721 721 721 721 722 722 722 723 723
753 751 749 747 745 743 742 741 740 739 738 737 736 734 733 731 730 728 727 726 725 724 723 722 722 721 720 719 718 717 717 716 716 716 715 715 714 714 713 713 713 714 714 714 715 716 716 717 718 718 719 720 721 721 721 721 721 720 720 719 719 719 719 719 719 719 720 720 720
751 750 748 746 744 742 741 740 739 738 738 737 735 734 733 731 729 728 726 725 724 723 722 721 720 720 719 718 717 716 715 715 714 714 713 713 713 712 712 712 711 711 712 712 713 713 714 715 715 716 717 718 718 719 719 719 719 718 718 718 718 717 717 717 717 717 718 718 718
750 748 746 745 743 742 740 739 739 738 737 737 735 734 732 730 728 727 725 724 723 722 721 720 719 718 718 717 716 715 714 714 713 713 712 712 711 710 710 709 709 709 709 710 711 711 712 713 713 714 714 715 716 717 717 717 717 717 716 716 716 716 715 715 715 715 715 716 716
749 747 746 744 743 742 740 739 739 738 738 737 735 733 732 730 728 727 725 723 722 721 719 718 718 717 716 715 715 714 713 713 712 711 711 710 710 709 708 707 707 707 707 708 708 709 710 710 711 711 712 713 714 714 714 715 715 714 714 714 714 714 714 714 713 713 713 714 714
748 747 745 744 743 742 741 740 739 738 738 737 735 733 732 730 728 727 725 723 721 719 718 717 716 715 714 714 713 713 712 711 711 710 709 709 708 707 706 705 705 705 705 705 706 706 707 708 708 709 710 711 712 712 712 712 712 712 712 712 712 712 712 712 712 712 712 712 712
748 746 745 744 743 742 741 740 739 738 737 736 735 733 731 730 728 726 725 723 721 719 717 715 714 713 713 713 712 711 711 710 710 709 708 707 707 706 705 704 703 703 703 703 703 704 704 705 706 707 708 708 709 709 709 710 710 710 710 710 710 710 710 711 711 711 710 710 710
747 746 745 743 743 742 741 740 739 738 736 735 733 732 731 729 728 726 725 723 721 719 716 714 713 712 712 711 710 709 709 708 708 708 706 705 705 704 703 702 701 701 701 701 701 701 702 703 703 704 705 706 706 707 707 707 707 707 708 708 708 708 708 709 709 709 708 708 708
745 744 743 742 741 740 739 738 737 736 734 733 732 730 729 728 727 726 724 723 721 718 716 714 712 711 710 710 709 708 707 706 706 705 704 703 703 702 701 700 699 698 698 698 698 698 699 700 701 702 703 703 704 704 705 705 705 705 705 705 706 706 707 707 707 707 707 706 706
743 742 741 740 739 738 737 736 734 733 732 731 730 728 728 727 726 724 723 722 720 718 716 713 711 710 709 708 707 706 704 703 703 703 702 701 700 699 699 698 697 696 696 696 696 696 696 697 698 699 700 701 701 702 702 703 703 702 702 703 703 704 704 704 705 705 704 704 704
741 740 739 738 737 736 735 733 732 731 730 729 728 727 726 725 724 723 722 721 719 717 715 712 710 708 708 707 706 704 703 701 700 699 699 699 698 697 696 695 694 693 693 693 694 694 694 694 695 697 698 698 699 699 700 700 700 700 699 700 701 702 702 702 702 702 702 702 702